Location: Home
(42.5358°N, 72.7383°W)
Time: 16:38:30
(UTC-04:00)

Explorer 11/Cluster Stage 4 - Pass Details

Date: 11 August 2024
Orbit: 464 x 1208 km, 28.8° (Epoch: 19 September)

Event Time Altitude Azimuth Distance (km) Brightness Sun altitude
Rises 00:59:31 0° 243° (WSW) 3,409 - -32.3°
Reaches altitude 10° 01:02:20 10° 230° (SW) 2,600 - -32.3°
Maximum altitude 01:07:25 25° 177° (S) 1,924 - -32.3°
Drops below altitude 10° 01:13:11 10° 126° (SE) 2,987 - -32.2°
Sets 01:16:41 0° 114° (ESE) 4,028 - -32.2°
